Year,Month,Day,Hour,Minute,Value (Times are PST for temperature in C)
2010,08,12,10,24,19.80
2010,08,12,10,25,19.90
2010,08,12,10,26,20.00
2010,08,12,10,27,20.10
2010,08,12,10,28,20.20
2010,08,12,10,29,20.20
2010,08,12,10,30,20.10
2010,08,12,10,31,20.10
2010,08,12,10,32,20.10
2010,08,12,10,33,20.00
2010,08,12,10,34,20.00
2010,08,12,10,35,19.90
2010,08,12,10,36,19.90
2010,08,12,10,37,19.90
2010,08,12,10,38,19.90
2010,08,12,10,39,19.90
2010,08,12,10,40,19.90
2010,08,12,10,41,19.90
2010,08,12,10,42,19.90
2010,08,12,10,43,19.90
2010,08,12,10,44,20.00
2010,08,12,10,45,20.10
2010,08,12,10,46,20.10
2010,08,12,10,47,20.20
2010,08,12,10,48,20.30
2010,08,12,10,49,20.30
2010,08,12,10,50,20.40
2010,08,12,10,51,20.40
2010,08,12,10,52,20.40
2010,08,12,10,53,20.40
2010,08,12,10,54,20.50
2010,08,12,10,55,20.50
2010,08,12,10,56,20.40
2010,08,12,10,57,20.40
2010,08,12,10,58,20.40
2010,08,12,10,59,20.50
2010,08,12,11,00,20.50
2010,08,12,11,01,20.50
2010,08,12,11,02,20.50
2010,08,12,11,03,20.50
2010,08,12,11,04,20.60
2010,08,12,11,05,20.60
2010,08,12,11,06,20.60
2010,08,12,11,07,20.60
2010,08,12,11,08,20.50
2010,08,12,11,09,20.40
2010,08,12,11,10,20.40
2010,08,12,11,11,20.50
2010,08,12,11,12,20.60
2010,08,12,11,13,20.60
2010,08,12,11,14,20.50
2010,08,12,11,15,20.50
2010,08,12,11,16,20.50
2010,08,12,11,17,20.40
2010,08,12,11,18,20.40
2010,08,12,11,19,20.40
2010,08,12,11,20,20.40
2010,08,12,11,21,20.30
2010,08,12,11,22,20.30
2010,08,12,11,23,20.30
2010,08,12,11,24,20.40
2010,08,12,11,25,20.40
2010,08,12,11,26,20.30
2010,08,12,11,27,20.30
2010,08,12,11,28,20.40
2010,08,12,11,29,20.50
2010,08,12,11,30,20.50
2010,08,12,11,31,20.60
2010,08,12,11,32,20.60
2010,08,12,11,33,20.60
2010,08,12,11,34,20.60
2010,08,12,11,35,20.60
2010,08,12,11,36,20.50
2010,08,12,11,37,20.50
2010,08,12,11,38,20.60
2010,08,12,11,39,20.60
2010,08,12,11,40,20.60
2010,08,12,11,41,20.70
2010,08,12,11,42,20.80
2010,08,12,11,43,20.70
2010,08,12,11,44,20.70
2010,08,12,11,45,20.70
2010,08,12,11,46,20.70
2010,08,12,11,47,20.80
2010,08,12,11,48,20.80
2010,08,12,11,49,20.80
2010,08,12,11,50,20.80
2010,08,12,11,51,20.80
2010,08,12,11,52,20.90
2010,08,12,11,53,20.90
2010,08,12,11,54,20.90
2010,08,12,11,55,20.90
2010,08,12,11,56,20.70
2010,08,12,11,57,20.70
2010,08,12,11,58,20.70
2010,08,12,11,59,20.80
2010,08,12,12,00,20.80
2010,08,12,12,01,20.80
2010,08,12,12,02,20.80
2010,08,12,12,03,20.80
2010,08,12,12,04,20.80
2010,08,12,12,05,20.80
2010,08,12,12,06,20.80
2010,08,12,12,07,20.90
2010,08,12,12,08,21.00
2010,08,12,12,09,21.10
2010,08,12,12,10,21.10
2010,08,12,12,11,21.10
2010,08,12,12,12,21.20
2010,08,12,12,13,21.20
2010,08,12,12,14,21.20
2010,08,12,12,15,21.20
2010,08,12,12,16,21.10
2010,08,12,12,17,21.10
2010,08,12,12,18,21.00
2010,08,12,12,19,20.90
2010,08,12,12,20,20.90
2010,08,12,12,21,20.80
2010,08,12,12,22,20.80
2010,08,12,12,23,20.80
2010,08,12,12,24,20.80
2010,08,12,12,25,20.80
2010,08,12,12,26,20.80
2010,08,12,12,27,20.80
2010,08,12,12,28,20.90
2010,08,12,12,29,20.90
2010,08,12,12,30,20.90
2010,08,12,12,31,21.00
2010,08,12,12,32,21.00
2010,08,12,12,33,21.00
2010,08,12,12,34,20.90
2010,08,12,12,35,21.00
2010,08,12,12,36,21.00
2010,08,12,12,37,21.10
2010,08,12,12,38,21.10
2010,08,12,12,39,21.10
2010,08,12,12,40,21.00
2010,08,12,12,41,21.00
2010,08,12,12,42,21.10
2010,08,12,12,43,21.10
2010,08,12,12,44,21.10
2010,08,12,12,45,20.90
2010,08,12,12,46,21.00
2010,08,12,12,47,21.00
2010,08,12,12,48,21.10
2010,08,12,12,49,21.20
2010,08,12,12,50,21.30
2010,08,12,12,51,21.30
2010,08,12,12,52,21.30
2010,08,12,12,53,21.30
2010,08,12,12,54,21.20
2010,08,12,12,55,21.20
2010,08,12,12,56,21.30
2010,08,12,12,57,21.30
2010,08,12,12,58,21.30
2010,08,12,12,59,21.40
2010,08,12,13,00,21.50
2010,08,12,13,01,21.60
2010,08,12,13,02,21.70
2010,08,12,13,03,21.80
2010,08,12,13,04,21.80
2010,08,12,13,05,21.80
2010,08,12,13,06,21.80
2010,08,12,13,07,21.80
2010,08,12,13,08,21.80
2010,08,12,13,09,21.80
2010,08,12,13,10,21.80
2010,08,12,13,11,21.70
2010,08,12,13,12,21.60
2010,08,12,13,13,21.60
2010,08,12,13,14,21.60
2010,08,12,13,15,21.70
2010,08,12,13,16,21.70
2010,08,12,13,17,21.60
2010,08,12,13,18,21.60
2010,08,12,13,19,21.60
2010,08,12,13,20,21.60
2010,08,12,13,21,21.60
2010,08,12,13,22,21.60
2010,08,12,13,23,21.70
2010,08,12,13,24,21.60
2010,08,12,13,25,21.60
2010,08,12,13,26,21.60
2010,08,12,13,27,21.70
2010,08,12,13,28,21.80
2010,08,12,13,29,22.00
2010,08,12,13,30,22.10
2010,08,12,13,31,22.20
2010,08,12,13,32,22.30
2010,08,12,13,33,22.20
2010,08,12,13,34,22.20
2010,08,12,13,35,22.10
2010,08,12,13,36,21.90
2010,08,12,13,37,21.80
2010,08,12,13,38,21.80
2010,08,12,13,39,21.80
2010,08,12,13,40,21.80
2010,08,12,13,41,21.70
2010,08,12,13,42,21.70
2010,08,12,13,43,21.70
2010,08,12,13,44,21.70
2010,08,12,13,45,21.70
2010,08,12,13,46,21.80
2010,08,12,13,47,21.80
2010,08,12,13,48,21.70
2010,08,12,13,49,21.60
2010,08,12,13,50,21.40
2010,08,12,13,51,21.30
2010,08,12,13,52,21.30
2010,08,12,13,53,21.30
2010,08,12,13,54,21.40
2010,08,12,13,55,21.50
2010,08,12,13,56,21.50
2010,08,12,13,57,21.60
2010,08,12,13,58,21.60
2010,08,12,13,59,21.60
2010,08,12,14,00,21.50
2010,08,12,14,01,21.50
2010,08,12,14,02,21.60
2010,08,12,14,03,21.60
2010,08,12,14,04,21.60
2010,08,12,14,05,21.60
2010,08,12,14,06,21.60
2010,08,12,14,07,21.60
2010,08,12,14,08,21.50
2010,08,12,14,09,21.40
2010,08,12,14,10,21.40
2010,08,12,14,11,21.40
2010,08,12,14,12,21.30
2010,08,12,14,13,21.30
2010,08,12,14,14,21.30
2010,08,12,14,15,21.40
2010,08,12,14,16,21.50
2010,08,12,14,17,21.60
2010,08,12,14,18,21.70
2010,08,12,14,19,21.80
2010,08,12,14,20,21.80
2010,08,12,14,21,21.80
2010,08,12,14,22,21.90
2010,08,12,14,23,22.00
2010,08,12,14,24,22.00
2010,08,12,14,25,22.00
2010,08,12,14,26,22.00
2010,08,12,14,27,22.00
2010,08,12,14,28,22.10
2010,08,12,14,29,22.20
2010,08,12,14,30,22.20
2010,08,12,14,31,22.30
2010,08,12,14,32,22.20
2010,08,12,14,33,22.20
2010,08,12,14,34,22.20
2010,08,12,14,35,22.10
2010,08,12,14,36,22.10
2010,08,12,14,37,22.20
2010,08,12,14,38,22.30
2010,08,12,14,39,22.40
2010,08,12,14,40,22.40
2010,08,12,14,41,22.40
2010,08,12,14,42,22.40
2010,08,12,14,43,22.50
2010,08,12,14,44,22.60
2010,08,12,14,45,22.70
2010,08,12,14,46,22.60
2010,08,12,14,47,22.50
2010,08,12,14,48,22.40
2010,08,12,14,49,22.30
2010,08,12,14,50,22.20
2010,08,12,14,51,22.20
2010,08,12,14,52,22.20
2010,08,12,14,53,22.10
2010,08,12,14,54,22.10
2010,08,12,14,55,22.10
2010,08,12,14,56,22.10
2010,08,12,14,57,22.00
2010,08,12,14,58,21.90
2010,08,12,14,59,21.90
2010,08,12,15,00,21.90
2010,08,12,15,01,22.00
2010,08,12,15,02,22.10
2010,08,12,15,03,22.20
2010,08,12,15,04,22.20
2010,08,12,15,05,22.20
2010,08,12,15,06,22.20
2010,08,12,15,07,22.20
2010,08,12,15,08,22.20
2010,08,12,15,09,22.20
2010,08,12,15,10,22.20
2010,08,12,15,11,22.20
2010,08,12,15,12,22.20
2010,08,12,15,13,22.20
2010,08,12,15,14,22.20
2010,08,12,15,15,22.30
2010,08,12,15,16,22.30
2010,08,12,15,17,22.30
2010,08,12,15,18,22.30
2010,08,12,15,19,22.30
2010,08,12,15,20,22.40
2010,08,12,15,21,22.40
2010,08,12,15,22,22.40
2010,08,12,15,23,22.40
2010,08,12,15,24,22.40
2010,08,12,15,25,22.50
2010,08,12,15,26,22.60
2010,08,12,15,27,22.60
2010,08,12,15,28,22.70
2010,08,12,15,29,22.70
2010,08,12,15,30,22.70
2010,08,12,15,31,22.70
2010,08,12,15,32,22.70
2010,08,12,15,33,22.70
2010,08,12,15,34,22.70
2010,08,12,15,35,22.70
2010,08,12,15,36,22.70
2010,08,12,15,37,22.80
2010,08,12,15,38,22.90
2010,08,12,15,39,23.00
2010,08,12,15,40,23.10
2010,08,12,15,41,23.10
2010,08,12,15,42,23.20
2010,08,12,15,43,23.10
2010,08,12,15,44,23.10
2010,08,12,15,45,23.10
2010,08,12,15,46,23.10
2010,08,12,15,47,23.10
2010,08,12,15,48,23.10
2010,08,12,15,49,23.20
2010,08,12,15,50,23.20
2010,08,12,15,51,23.20
2010,08,12,15,52,23.20
2010,08,12,15,53,23.20
2010,08,12,15,54,23.20
2010,08,12,15,55,23.20
2010,08,12,15,56,23.10
2010,08,12,15,57,23.10
2010,08,12,15,58,23.10
2010,08,12,15,59,23.10
2010,08,12,16,00,23.10
2010,08,12,16,01,23.10
2010,08,12,16,02,23.10
2010,08,12,16,03,23.20
2010,08,12,16,04,23.20
2010,08,12,16,05,23.20
2010,08,12,16,06,23.30
2010,08,12,16,07,23.20
2010,08,12,16,08,23.10
2010,08,12,16,09,23.10
2010,08,12,16,10,23.10
2010,08,12,16,11,23.00
2010,08,12,16,12,22.90
2010,08,12,16,13,22.90
2010,08,12,16,14,22.90
2010,08,12,16,15,22.90
2010,08,12,16,16,22.90
2010,08,12,16,17,22.80
2010,08,12,16,18,22.90
2010,08,12,16,19,22.90
2010,08,12,16,20,23.00
2010,08,12,16,21,23.10
2010,08,12,16,22,23.20
2010,08,12,16,23,23.20
2010,08,12,16,24,23.20
2010,08,12,16,25,23.10
2010,08,12,16,26,23.10
2010,08,12,16,27,23.10
2010,08,12,16,28,23.00
2010,08,12,16,29,23.00
2010,08,12,16,30,23.10
2010,08,12,16,31,23.00
2010,08,12,16,32,23.00
2010,08,12,16,33,22.90
2010,08,12,16,34,22.90
2010,08,12,16,35,22.90
2010,08,12,16,36,22.90
2010,08,12,16,37,22.90
2010,08,12,16,38,22.90
2010,08,12,16,39,22.90
2010,08,12,16,40,22.90
2010,08,12,16,41,22.90
2010,08,12,16,42,22.90
2010,08,12,16,43,22.90
2010,08,12,16,44,22.90
2010,08,12,16,45,22.90
2010,08,12,16,46,23.00
2010,08,12,16,47,23.00
2010,08,12,16,48,22.90
2010,08,12,16,49,22.90
2010,08,12,16,50,23.00
2010,08,12,16,51,23.00
2010,08,12,16,52,23.10
2010,08,12,16,53,23.10
2010,08,12,16,54,23.20
2010,08,12,16,55,23.20
2010,08,12,16,56,23.20
2010,08,12,16,57,23.20
2010,08,12,16,58,23.20
2010,08,12,16,59,23.20
2010,08,12,17,00,23.30
2010,08,12,17,01,23.30
2010,08,12,17,02,23.30
2010,08,12,17,03,23.40
2010,08,12,17,04,23.40
2010,08,12,17,05,23.40
2010,08,12,17,06,23.40
2010,08,12,17,07,23.30
2010,08,12,17,08,23.30
2010,08,12,17,09,23.30
2010,08,12,17,10,23.30
2010,08,12,17,11,23.30
2010,08,12,17,12,23.30
2010,08,12,17,13,23.30
2010,08,12,17,14,23.30
2010,08,12,17,15,23.40
2010,08,12,17,16,23.40
2010,08,12,17,17,23.40
2010,08,12,17,18,23.40
2010,08,12,17,19,23.50
2010,08,12,17,20,23.60
2010,08,12,17,21,23.60
2010,08,12,17,22,23.60
2010,08,12,17,23,23.50
2010,08,12,17,24,23.50
2010,08,12,17,25,23.50
2010,08,12,17,26,23.50
2010,08,12,17,27,23.60
2010,08,12,17,28,23.50
2010,08,12,17,29,23.50
2010,08,12,17,30,23.40
2010,08,12,17,31,23.40
2010,08,12,17,32,23.30
2010,08,12,17,33,23.20
2010,08,12,17,34,23.20
2010,08,12,17,35,23.10
2010,08,12,17,36,23.00
2010,08,12,17,37,22.90
2010,08,12,17,38,22.90
2010,08,12,17,39,22.80
2010,08,12,17,40,22.80
2010,08,12,17,41,22.80
2010,08,12,17,42,22.80
2010,08,12,17,43,22.80
2010,08,12,17,44,22.90
2010,08,12,17,45,22.90
2010,08,12,17,46,22.90
2010,08,12,17,47,23.00
2010,08,12,17,48,22.90
2010,08,12,17,49,22.80
2010,08,12,17,50,22.80
2010,08,12,17,51,22.80
2010,08,12,17,52,22.70
2010,08,12,17,53,22.70
2010,08,12,17,54,22.70
2010,08,12,17,55,22.70
2010,08,12,17,56,22.70
2010,08,12,17,57,22.80
2010,08,12,17,58,22.80
2010,08,12,17,59,22.80
2010,08,12,18,00,22.80
2010,08,12,18,01,22.80
2010,08,12,18,02,22.80
2010,08,12,18,03,22.80
2010,08,12,18,04,22.70
2010,08,12,18,05,22.70
2010,08,12,18,06,22.70
2010,08,12,18,07,22.70
2010,08,12,18,08,22.70
2010,08,12,18,09,22.70
2010,08,12,18,10,22.70
2010,08,12,18,11,22.70
2010,08,12,18,12,22.70
2010,08,12,18,13,22.80
2010,08,12,18,14,22.80
2010,08,12,18,15,22.80
2010,08,12,18,16,22.80
2010,08,12,18,17,22.80
2010,08,12,18,18,22.80
2010,08,12,18,19,22.70
2010,08,12,18,20,22.60
2010,08,12,18,21,22.60
2010,08,12,18,22,22.70
2010,08,12,18,23,22.70
2010,08,12,18,24,22.70
2010,08,12,18,25,22.70
2010,08,12,18,26,22.70
2010,08,12,18,27,22.70
2010,08,12,18,28,22.70
2010,08,12,18,29,22.70
2010,08,12,18,30,22.70
2010,08,12,18,31,22.70
2010,08,12,18,32,22.70
2010,08,12,18,33,22.70
2010,08,12,18,34,22.60
2010,08,12,18,35,22.60
2010,08,12,18,36,22.60
2010,08,12,18,37,22.60
2010,08,12,18,38,22.60
2010,08,12,18,39,22.60
2010,08,12,18,40,22.60
2010,08,12,18,41,22.60
2010,08,12,18,42,22.60
2010,08,12,18,43,22.60
2010,08,12,18,44,22.60
2010,08,12,18,45,22.60
2010,08,12,18,46,22.60
2010,08,12,18,47,22.60
2010,08,12,18,48,22.60
2010,08,12,18,49,22.60
2010,08,12,18,50,22.60
2010,08,12,18,51,22.60
2010,08,12,18,52,22.60
2010,08,12,18,53,22.50
2010,08,12,18,54,22.50
2010,08,12,18,55,22.40
2010,08,12,18,56,22.40
2010,08,12,18,57,22.40
2010,08,12,18,58,22.40
2010,08,12,18,59,22.40
2010,08,12,19,00,22.40
2010,08,12,19,01,22.40
2010,08,12,19,02,22.30
2010,08,12,19,03,22.30
2010,08,12,19,04,22.20
2010,08,12,19,05,22.20
2010,08,12,19,06,22.20
2010,08,12,19,07,22.20
2010,08,12,19,08,22.20
2010,08,12,19,09,22.10
2010,08,12,19,10,22.10
2010,08,12,19,11,22.00
2010,08,12,19,12,22.00
2010,08,12,19,13,22.00
2010,08,12,19,14,21.90
2010,08,12,19,15,21.90
2010,08,12,19,16,21.90
2010,08,12,19,17,21.90
2010,08,12,19,18,21.90
2010,08,12,19,19,21.90
2010,08,12,19,20,21.90
2010,08,12,19,21,21.90
2010,08,12,19,22,21.80
2010,08,12,19,23,21.80
2010,08,12,19,24,21.80
2010,08,12,19,25,21.80
2010,08,12,19,26,21.70
2010,08,12,19,27,21.70
2010,08,12,19,28,21.70
2010,08,12,19,29,21.70
2010,08,12,19,30,21.70
2010,08,12,19,31,21.70
2010,08,12,19,32,21.60
2010,08,12,19,33,21.60
2010,08,12,19,34,21.50
2010,08,12,19,35,21.50
2010,08,12,19,36,21.40
2010,08,12,19,37,21.40
2010,08,12,19,38,21.30
2010,08,12,19,39,21.30
2010,08,12,19,40,21.30
2010,08,12,19,41,21.30
2010,08,12,19,42,21.20
2010,08,12,19,43,21.20
2010,08,12,19,44,21.20
2010,08,12,19,45,21.10
2010,08,12,19,46,21.10
2010,08,12,19,47,21.10
2010,08,12,19,48,21.10
2010,08,12,19,49,21.00
2010,08,12,19,50,21.00
2010,08,12,19,51,21.00
2010,08,12,19,52,20.90
2010,08,12,19,53,20.90
2010,08,12,19,54,20.90
2010,08,12,19,55,20.80
2010,08,12,19,56,20.80
2010,08,12,19,57,20.80
2010,08,12,19,58,20.80
2010,08,12,19,59,20.80
2010,08,12,20,00,20.70
2010,08,12,20,01,20.70
2010,08,12,20,02,20.70
2010,08,12,20,03,20.70
2010,08,12,20,04,20.60
2010,08,12,20,05,20.60
2010,08,12,20,06,20.60
2010,08,12,20,07,20.60
2010,08,12,20,08,20.60
2010,08,12,20,09,20.50
2010,08,12,20,10,20.50
2010,08,12,20,11,20.40
2010,08,12,20,12,20.40
2010,08,12,20,13,20.40
2010,08,12,20,14,20.30
2010,08,12,20,15,20.30
2010,08,12,20,16,20.20
2010,08,12,20,17,20.10
2010,08,12,20,18,20.00
2010,08,12,20,19,20.00
2010,08,12,20,20,19.90
2010,08,12,20,21,19.90
2010,08,12,20,22,19.80
2010,08,12,20,23,19.70
2010,08,12,20,24,19.70
2010,08,12,20,25,19.60
2010,08,12,20,26,19.60
2010,08,12,20,27,19.50
2010,08,12,20,28,19.50
2010,08,12,20,29,19.40
2010,08,12,20,30,19.40
2010,08,12,20,31,19.30
2010,08,12,20,32,19.30
2010,08,12,20,33,19.20
2010,08,12,20,34,19.20
2010,08,12,20,35,19.10
2010,08,12,20,36,19.00
2010,08,12,20,37,18.90
2010,08,12,20,38,18.90
2010,08,12,20,39,18.90
2010,08,12,20,40,18.80
2010,08,12,20,41,18.80
2010,08,12,20,42,18.70
2010,08,12,20,43,18.70
2010,08,12,20,44,18.70
2010,08,12,20,45,18.60
2010,08,12,20,46,18.60
2010,08,12,20,47,18.60
2010,08,12,20,48,18.50
2010,08,12,20,49,18.50
2010,08,12,20,50,18.40
2010,08,12,20,51,18.40
2010,08,12,20,52,18.30
2010,08,12,20,53,18.30
2010,08,12,20,54,18.30
2010,08,12,20,55,18.30
2010,08,12,20,56,18.30
2010,08,12,20,57,18.30
2010,08,12,20,58,18.30
2010,08,12,20,59,18.30
2010,08,12,21,00,18.30
2010,08,12,21,01,18.30
2010,08,12,21,02,18.30
